World > North America > United States > Nebraska

Kearney County, Nebraska Regional Weather

Lat: 40.51N, Lon: 98.94W
Wx Zone: NEZ074Web Search
Kearney County Weather Warning NWS WEATHER ALERT FOR THE KEARNEY COUNTY, NE AREA - Issued: 343 AM CDT Thu Apr 15 2021 Kearney County Weather Warning  

Helpful Tip: You can add this page to Bookmarks by pressing the Ctrl key & d key at the same time. Mac users press command & d.

Feedback


°F Click to change Kearney County hourly weather to Imperial units.Click to change Kearney County hourly weather to Metric units. °C
Kearney County Weather Map
UTC Time: 4/15/2021, 17:19
Your Time:

Kearney County, NE Regional Weather

Expires:202104151800;;598608
ASUS43 KOAX 151710
RWRNE 

WEATHER ROUNDUP FOR NEBRASKA
NATIONAL WEATHER SERVICE OMAHA NE
1200 PM CDT THU APR 15 2021

NOTES: SATELLITE DATA IS BEING USED TO AUGMENT CLOUD COVER ABOVE
       12000 FEET.
       "FAIR" INDICATES FEW OR NO CLOUDS BELOW 12,000 FEET WITH NO
       SIGNIFICANT WEATHER AND/OR OBSTRUCTIONS TO VISIBILITY.

   

NEZ041-046>049-061>064-073>077-083>087-151800-
SOUTH CENTRAL NEBRASKA
  
CITY           SKY/WX    TMP DP  RH WIND       PRES   REMARKS
GRAND ISLAND   MOSUNNY   46  29  51 NE10      30.22F                  
AURORA         MOSUNNY   46  31  55 NE12      30.21F                  
HASTINGS       MOSUNNY   44  31  60 NE7       30.21F                  
HEBRON         MOSUNNY   46  32  58 NE7       30.22F                  
HOLDREGE       CLOUDY    44  29  57 E5        30.20F                  
KEARNEY        MOSUNNY   43  28  55 N3        30.21F                  
YORK           MOSUNNY   45  32  61 N9G16     30.21F                  
$$
 

SKY/WX - Weather  TMP - Temperature  DP - Dew Point  RH - Relative Humidity
WIND - Wind Direction/Speed PRES - Barometric Pressure VSB - Visibility
WCI - Wind Chill Index E13G22 Wind - East Wind 13 mph/Gusts of 22 mph